200 serials | sothink logo maker professional 4.4 registration key

Date Name Success Rate
2012-12-13 09:14:31 Sothink Logo Maker 77%
2009-10-22 23:49:57 Sothink HD Movie Maker 84%
2012-12-12 02:50:30 Aurora 3D Text & Logo Maker 80%
2012-12-12 02:50:30 Aurora 3D Text and Logo Maker v11.0 60%
2012-12-12 02:50:31 Aurora 3D Text and Logo Maker v11.12.22 70%
2011-09-08 12:53:19 The Logo Creator plug-ins Logo Sets 74%
2011-09-08 12:53:19 The Logo Creator v3.0 - Logo Design Software 58%
2011-09-08 10:42:09 DAS Registration 1.5.2 66%
2011-09-08 10:42:09 DAS Registration For CW5 0%
2011-09-08 10:42:09 DAS Registration v1.5.2 0%
2009-10-17 06:27:02 Lazarus Registration DLL V1.0 59%
2009-10-22 23:48:48 MemoriesonTV Registration 0%
2009-10-22 23:49:42 Registration Wizard 40%
2011-09-08 10:06:47 AnetHelpTool v4.02 Registration 52%
2011-09-08 10:22:13 ByeLines Registration 60%
2011-09-08 10:57:42 Ftgate Registration 63%
2011-09-08 11:15:16 Infodex v2.10 Registration 0%
2011-09-08 11:25:08 Lazarus Registration DLL v1.0 0%
2011-09-08 11:27:46 Mac Opener v3.0 Registration 57%
2011-09-08 11:32:59 mIRC v4.5+ Registration 60%
2011-09-08 11:32:59 mIRC v4.52 Registration 60%
2011-09-08 12:37:02 Quant v2.0 Registration 0%
2011-09-08 12:41:14 Registration Suite 1.0 60%
2011-09-08 12:41:14 Registration Suite v1.0 60%
2011-09-08 12:41:14 Registration Wizard Pro 5.01 46%
2011-09-08 12:41:14 Registration Wizard Pro v5.01 60%
2011-09-08 13:18:59 WinHacker 95 v2.02 Registration 57%
2012-12-13 05:12:00 Registration Key : 526EFEF086E09600449E667EA2DAE8E2E6D642BC 83%
2009-10-22 23:27:21 Ardamax Keylogger 2.9 Registration 56%
2009-10-22 23:48:49 Microsoft Registration Hacker - 39%
2009-10-22 23:49:57 SoudForge ALL (No Registration Requiered) 0%
2009-10-22 23:50:26 Valve's Registration Armor Key-Gen 60%
2011-09-08 10:21:42 Browserola v1.01 Temp. Registration 0%
2011-09-08 10:56:11 FontLook v3.1 Registration Code 62%
2011-09-08 11:31:51 Microsoft Registration Hacker 0%
2011-09-08 11:31:51 Microsoft Registration Hacker - 0%
2011-09-08 11:31:51 Microsoft Registration HackerMSREGHACK 0%
2011-09-08 11:32:07 Microstation v5.xx.xx & 95 FULL REGISTRATION 48%
2011-09-08 11:42:43 Nic O'Matic 1.6 Registration Code 50%
2011-09-08 11:42:43 Nic O'Matic v1.6 Registration Code 55%
2011-09-08 12:34:57 PolyTrans V1.2E Registration Activator CD-Key 62%
2011-09-08 12:34:57 PolyView v2.9b16 Registration 0%
2011-09-08 12:54:09 Time Registration (German) 1.10 0%
2011-09-08 12:59:30 Super Collapse Registration 100%
2011-09-08 13:23:15 Yipe! II for Windows Registration #154 0%
2012-12-13 08:49:53 Softwarenetz Time Registration v1.10 0%
2012-12-13 08:49:56 Softwarenetz Time Registration v1.14 0%
2012-12-13 15:34:10 Valve's Registration Armor Key-Gen 0%
2009-10-22 23:48:17 Internet Download Manager Registration 50%
2011-09-08 10:25:56 Cheyenne Bitware V4.0 Registration Number 60%
2011-09-08 11:31:51 Microsoft Registration Hacker MSREGHACK 80%
2011-09-08 11:31:51 Microsoft Visual Basic 5 registration cd key 72%
2011-09-08 12:54:14 TimeSlips 10.5 enterprise - with registration code! 0%
2012-12-12 08:07:32 Download avast 5.0.667 Antivirus registration 0%
2012-12-13 05:12:00 Registration Code For PDFZilla Giveaway 0%
2012-12-13 05:12:00 Registration key for x-3gp-video-converter-38540 54%
2012-12-13 13:12:40 Total Image Converter Registration Key 57%
2009-10-17 07:20:05 3D Box Maker Professional V2.0 0%
2009-10-23 07:01:19 3D Box Maker Professional 1.1 0%
2009-10-23 07:01:19 3D Box Maker Professional 2.0 0%
2009-10-23 07:01:19 3D Box Maker Professional V1.1 - 2.0 0%
2011-09-08 11:30:16 MediaBlaze 98 v1.01 Win95/NT User: delphic Registration 0%
2012-12-13 05:12:00 Registration code:-826510-16101-266644 51%
2009-10-17 06:23:04 Folder Maker Professional V2.1-DOA 23%
2009-10-17 06:30:06 Photo DVD Maker Professional V7.71 73%
2009-10-22 23:47:53 Folder Maker Professional V2.1 0%
2009-10-22 23:49:22 Photo DVD Maker Professional 7.04 0%
2009-10-22 23:49:22 Photo DVD Maker Professional V7.71 13%
2011-09-08 10:24:47 CD-Maker 2000 Professional 5.0.15 0%
2011-09-08 10:24:47 CD-Maker 2000 Professional v5.0.15 0%
2011-09-08 11:15:35 Install Maker Professional v1.3 0%
2011-09-08 11:43:38 NTI CD-Maker 2000 Professional 5.1.9 0%
2011-09-08 11:43:38 NTI CD-Maker 2000 Professional v5.0.15 0%
2011-09-08 11:43:38 NTI CD-Maker 2000 Professional v5.1.9 0%
2011-09-08 12:30:33 Photo DVD Maker Professional 8.05 0%
2012-12-13 01:32:54 Photo DVD Maker Professional 80%
2012-12-13 01:33:00 Photo DVD Maker Professional 7.93 0%
2012-12-13 01:33:03 Photo DVD Maker Professional 8.08 69%
2009-10-22 23:49:02 Norton Internet Security 2005 Registration Guide 0%
2011-09-08 09:58:40 Acoustica Mixcraft v1.10 Build 15 Registration Info by MaBi 60%
2012-12-12 19:40:26 Microsoft Visual Basic 2008 Express Edition Registration key 55%
2009-10-17 07:20:05 3D Box Maker Professional V1.1 Build 112005-17 0%
2009-10-22 23:47:52 Flash Slideshow Maker Professional 84%
2011-09-08 10:33:25 Cyclone Screensaver Maker v2.02 Professional 0%
2011-09-08 10:55:24 Flash Slideshow Maker Professional 4.81 60%
2011-09-08 12:30:33 Photo Flash Maker Professional 5.16 40%
2012-12-12 01:39:52 AnvSoft Photo DVD Maker Professional v8.21 0%
2012-12-12 12:08:49 Flash Slideshow Maker Professional 5.10 100%
2012-12-12 12:08:51 Flash Slideshow Maker Professional 5.20 68%
2009-10-17 06:19:32 Blink Development 3D Box Maker Professional V2.1.012006.24 35%
2009-10-23 07:01:10 123 Flash Screensaver Maker Professional Plus Editor 2.0.2.242 60%
2009-10-22 23:44:50 Blink Development 3D Box Maker Professional 2.1.012006.24 0%
2011-09-08 09:45:36 123 Flash Screensaver Maker Professional Plus Editor v2.0.2.242 20%
2011-09-08 10:07:29 Apex PowerPoint Screensaver Maker Professional Plus v2.0.2.235 0%
2011-09-08 10:20:29 Blink Development - 3D Box Maker Professional 26.03.2005 0%
2012-12-12 01:39:47 Anvsoft Flash SlideShow Maker Professional v5.10 0%
2012-12-12 01:39:56 AnvSoft Photo Flash Maker Professional v5.16 0%
2009-10-22 23:27:21 Apex PowerPoint Screensaver Maker Professional Plus Editor 2.0.2.235 0%
2011-09-08 10:07:29 Apex PowerPoint Screensaver Maker Professional Plus Editor 2.0.2.235 0%
2011-09-08 10:07:29 Apex PowerPoint Screensaver Maker Professional Plus Editor v2.0.2.235 100%
2012-12-12 03:31:58 AvnSoft Photo Flash Maker Professional 5.23 Serial 0%
2012-12-13 09:14:43 Sothink swf 20%
2009-10-17 06:18:06 AAA Logo V1.20 68%
2009-10-22 23:27:09 AAA Logo 1.20 0%
2011-09-08 09:49:58 AAA Logo 1.20 0%
2011-09-08 09:49:58 AAA Logo 1.21 0%
2011-09-08 09:49:58 AAA Logo v1.20 0%
2009-10-17 06:32:28 Sothink CoolMenu V3.0 0%
2009-10-22 23:49:56 Sothink CoolMenu 3.0 0%
2009-10-22 23:49:56 Sothink CoolMenu V3.0 0%
2009-10-22 23:49:56 Sothink DHTMLMenu 0%
2009-10-22 23:49:56 Sothink DHTMLMenu 7.1 53%
2009-10-22 23:49:56 Sothink DHTMLMenu 7.3 83%
2009-10-22 23:49:56 Sothink DHTMLMenu V7.1 0%
2009-10-22 23:49:56 Sothink DVD EZWorkshop 1.3 52%
2009-10-22 23:49:57 Sothink DVD Ripper 1.3 0%
2009-10-22 23:49:57 SOTHINK GLANDA 4.2 74%
2009-10-22 23:49:57 Sothink Glanda V.4.2.b. 0%
2009-10-22 23:49:57 Sothink SlidingMenu V2.0 0%
2009-10-22 23:49:57 Sothink SWF Decompiler 20%
2009-10-22 23:49:57 Sothink SWF Decompiler 3.3 0%
2009-10-22 23:49:57 Sothink SWF Decompiler 3.4 89%
2009-10-22 23:49:57 Sothink Swf Decompiler 3.6 8%
2009-10-22 23:49:57 Sothink SWF Decompiler 3.7 100%
2009-10-22 23:49:57 Sothink Swf Decompiler 4.0 0%
2009-10-22 23:49:57 Sothink Swf Decompiler 4.1 90%
2009-10-22 23:49:57 Sothink SWF Decompiler 4.x 0%
2009-10-22 23:49:57 Sothink SWF Quicker 67%
2009-10-22 23:49:57 Sothink SWF Quicker 2.0 0%
2009-10-22 23:49:57 Sothink SWF Quicker 2.6 70%
2009-10-22 23:49:57 Sothink SWF Quicker 3.0 31%
2009-10-22 23:49:57 Sothink SWF Quicker 4.0 51%
2009-10-22 23:49:57 Sothink SWF Quicker V2.5 54%
2009-10-22 23:49:57 Sothink Web Downloader 52%
2011-09-08 10:42:38 Decompiler Sothink SWF 0%
2011-09-08 12:50:20 Sothink CoolMenu 3.0 0%
2011-09-08 12:50:20 Sothink CoolMenu v3.0 0%
2011-09-08 12:50:20 Sothink SlidingMenu v2.0 by TNT 0%
2011-09-08 12:50:20 Sothink SWF Decompiler 0%
2011-09-08 12:50:20 Sothink SWF Decompiler 4.2 0%
2011-09-08 12:50:20 Sothink SWF Easy 6.0 54%
2011-09-08 12:50:20 Sothink Swf Quicker 1.6 0%
2012-12-13 09:13:39 Sothink DVD Ripper 2.1 100%
2012-12-13 09:15:15 Sothink SWF Decompiler 4.5 87%
2012-12-13 09:15:24 Sothink SWF Decompiler 5.4 0%
2012-12-13 09:15:30 Sothink SWF Decompiler 5.6 55%
2012-12-13 09:15:33 Sothink SWF Decompiler 7.3 53%
2012-12-13 09:15:45 Sothink SWF Decompiler v5.0 80%
2012-12-13 09:15:53 Sothink SWF Decompiler v5.6.549 0%
2012-12-13 09:16:18 Sothink SWF Quicker 4.6.462 0%
2012-12-13 09:16:19 Sothink SWF Quicker v4.0 0%
2009-10-17 06:32:54 SWGSoft AAA Logo V1.21 0%
2009-10-22 23:27:09 AAA Logo 2008.v2.10 53%
2009-10-22 23:27:09 AAA Logo Creater 0%
2009-10-22 23:48:17 Inno Logo 1.0 Pro 0%
2009-10-22 23:48:38 Logo Creator 56%
2009-10-22 23:50:03 SWGSoft AAA Logo 1.21 0%
2009-10-22 23:50:09 The Logo Creator 3.0 0%
2009-10-22 23:50:09 The Logo Creator 3.0 0%
2009-10-22 23:50:09 The Logo Creator 3.6 0%
2009-10-22 23:50:09 The Logo Creator 5.0 48%
2009-10-22 23:50:09 The Logo Creator V3 0%
2009-10-22 23:50:09 The Logo Creator V3. 0%
2009-10-22 23:50:09 The Logo Creator V3.5 0%
2011-09-08 09:49:58 AAA LOGO 2008 2.10 0%
2011-09-08 09:49:58 AAA Logo 2010 3.1 94%
2011-09-08 09:49:58 AAA Logo v1.20 Retail 0%
2011-09-08 11:15:26 Inno Logo Pro 1 0%
2011-09-08 11:15:26 Inno Logo Pro v1.0 0%
2011-09-08 11:15:26 Inno Logo v1.0 Pro by FFF 0%
2011-09-08 11:27:11 Logo Changer '95 v4.0 0%
2011-09-08 11:27:11 Logo Changer 2.0 0%
2011-09-08 11:27:11 Logo Changer 95 0%
2011-09-08 11:27:11 Logo Changer 98 5.0 0%
2011-09-08 11:27:11 Logo Changer 98 v5.0 0%
2011-09-08 11:27:11 Logo Changer 98 v5.51 0%
2011-09-08 11:27:11 Logo Changer v2.0 0%
2011-09-08 11:27:11 Logo Correcter v2.1 mac 0%
2011-09-08 11:27:11 Logo Corrector 2.1 0%
2011-09-08 11:27:11 Logo Corrector v2.1 0%
2011-09-08 11:27:11 Logo Creator 0%
2011-09-08 11:27:11 Logo Creator v3.0 0%
2011-09-08 11:27:11 Logo Creator v3.5 60%
2011-09-08 11:27:11 Logo Cycler 2.1 0%
2011-09-08 11:27:11 Logo Cycler v1.9 0%
2011-09-08 11:27:11 Logo Cycler v19 0%
2011-09-08 11:27:11 Logo Cycler v2.1 0%
2011-09-08 11:27:11 Logo Master 3.0 0%
2011-09-08 11:27:11 Logo Master v3.0 0%
2011-09-08 11:27:11 Logo Motion 0%
2011-09-08 11:27:11 Logo Organizer 98 4.0 0%
2011-09-08 11:27:11 Logo Organizer 98 v4.0 0%
2011-09-08 11:27:11 Logo Saver v2.0 0%
2011-09-08 11:27:11 Logo-Saver 2.0 0%
2011-09-08 11:27:11 Logo-Saver v2.0 0%
2011-09-08 12:26:20 OEM Logo Master 1.2 0%
2011-09-08 12:26:20 OEM Logo Master v1.2 0%
2011-09-08 12:43:50 RM Logo Changer 4.0 0%
2011-09-08 12:43:50 RM Logo Changer 5.0 0%
2011-09-08 12:43:50 RM Logo Changer Pro 3.20 0%